| time (UTC) | temp C | wind direction | speed KPH | gust KPH | rain 1hr cm | rain 24hr cm | rain mn cm | humidity % | barometer mb |
| 20260901040022 | 13 | 271 | 6.4 | 12.9 | 0.00 | 0.33 | 0.03 | 96 | 1008.5 |
| 20260901034522 | 13 | 272 | 6.4 | 14.5 | 0.00 | 0.33 | 0.03 | 96 | 1008.5 |
| 20260901033021 | 13 | 275 | 9.7 | 16.1 | 0.00 | 0.33 | 0.03 | 96 | 1008.3 |
| 20260901031521 | 13 | 259 | 11.3 | 16.1 | 0.00 | 0.33 | 0.03 | 96 | 1008.3 |
| 20260901030119 | 13 | 273 | 11.3 | 17.7 | 0.00 | 0.33 | 0.03 | 96 | 1008.2 |
| 20260901024517 | 13 | 284 | 12.9 | 17.7 | 0.00 | 0.33 | 0.03 | 96 | 1008.1 |
| 20260901023019 | 13 | 280 | 12.9 | 16.1 | 0.00 | 0.33 | 0.03 | 96 | 1008.0 |
| 20260901021517 | 13 | 279 | 11.3 | 16.1 | 0.00 | 0.33 | 0.03 | 96 | 1008.0 |
| 20260901020009 | 13 | 279 | 9.7 | 16.1 | 0.00 | 0.33 | 0.03 | 96 | 1008.0 |
| 20260901014525 | 13 | 267 | 6.4 | 12.9 | 0.00 | 0.33 | 0.03 | 95 | 1007.9 |
| 20260901013006 | 13 | 267 | 6.4 | 11.3 | 0.00 | 0.33 | 0.03 | 95 | 1007.7 |
| 20260901011505 | 12 | 257 | 4.8 | 6.4 | 0.00 | 0.33 | 0.03 | 95 | 1007.6 |
| 20260901010003 | 13 | 248 | 3.2 | 8.0 | 0.00 | 0.33 | 0.03 | 95 | 1007.6 |
| 20260901004503 | 13 | 253 | 3.2 | 6.4 | 0.03 | 0.33 | 0.03 | 95 | 1007.5 |
| 20260901003101 | 13 | 255 | 1.6 | 4.8 | 0.03 | 0.33 | 0.03 | 95 | 1007.4 |
| 20260901001608 | 13 | 265 | 4.8 | 9.7 | 0.03 | 0.33 | 0.03 | 95 | 1007.4 |
| 20260901000106 | 13 | 254 | 3.2 | 6.4 | 0.03 | 0.33 | 0.03 | 95 | 1007.3 |
| 20260831234615 | 13 | 267 | 3.2 | 6.4 | 0.00 | 0.30 | 0.00 | 95 | 1007.3 |
| 20260831233113 | 13 | 248 | 1.6 | 6.4 | 0.00 | 0.30 | 0.00 | 95 | 1007.2 |
| 20260831231554 | 14 | 259 | 1.6 | 6.4 | 0.00 | 0.30 | 0.00 | 95 | 1007.2 |
| 20260831230053 | 14 | 274 | 3.2 | 6.4 | 0.00 | 0.30 | 0.00 | 94 | 1007.1 |
| 20260831224550 | 14 | 234 | 1.6 | 6.4 | 0.00 | 0.30 | 0.00 | 95 | 1006.9 |
| 20260831223048 | 14 | 229 | 0.0 | 3.2 | 0.00 | 0.30 | 0.00 | 94 | 1006.8 |
| 20260831221549 | 14 | 229 | 0.0 | 3.2 | 0.00 | 0.30 | 0.00 | 94 | 1006.9 |
| 20260831220045 | 14 | 229 | 1.6 | 4.8 | 0.00 | 0.30 | 0.00 | 94 | 1006.7 |
| 20260831214546 | 14 | 227 | 1.6 | 4.8 | 0.00 | 0.30 | 0.30 | 94 | 1006.7 |
| 20260831213044 | 15 | 231 | 3.2 | 8.0 | 0.00 | 0.30 | 0.30 | 94 | 1006.5 |
| 20260831211544 | 14 | 211 | 4.8 | 8.0 | 0.00 | 0.30 | 0.30 | 94 | 1006.6 |
| 20260831210046 | 15 | 225 | 3.2 | 6.4 | 0.00 | 0.30 | 0.30 | 94 | 1006.6 |
| 20260831204542 | 15 | 229 | 1.6 | 8.0 | 0.00 | 0.30 | 0.30 | 94 | 1006.6 |
| 20260831203043 | 15 | 227 | 1.6 | 6.4 | 0.00 | 0.30 | 0.30 | 93 | 1006.6 |
| 20260831201547 | 15 | 246 | 0.0 | 6.4 | 0.00 | 0.30 | 0.30 | 93 | 1006.6 |
| 20260831200040 | 15 | 263 | 4.8 | 11.3 | 0.00 | 0.30 | 0.30 | 93 | 1006.5 |
| 20260831194540 | 15 | 223 | 3.2 | 8.0 | 0.00 | 0.30 | 0.30 | 93 | 1006.3 |
| 20260831193040 | 15 | 224 | 3.2 | 8.0 | 0.00 | 0.30 | 0.30 | 93 | 1006.3 |
| 20260831191541 | 15 | 220 | 3.2 | 6.4 | 0.00 | 0.30 | 0.30 | 92 | 1006.1 |
| 20260831190041 | 15 | 219 | 4.8 | 9.7 | 0.00 | 0.30 | 0.30 | 92 | 1006.3 |
| 20260831184539 | 15 | 218 | 6.4 | 9.7 | 0.00 | 0.30 | 0.30 | 92 | 1006.1 |
| 20260831183038 | 15 | 216 | 6.4 | 9.7 | 0.00 | 0.30 | 0.30 | 91 | 1006.0 |
| 20260831181540 | 15 | 210 | 6.4 | 11.3 | 0.00 | 0.30 | 0.30 | 91 | 1005.9 |
| 20260831180035 | 16 | 207 | 4.8 | 11.3 | 0.00 | 0.30 | 0.30 | 90 | 1005.6 |
| 20260831174533 | 16 | 224 | 6.4 | 11.3 | 0.00 | 0.30 | 0.30 | 89 | 1005.4 |
| 20260831173029 | 16 | 215 | 6.4 | 11.3 | 0.00 | 0.30 | 0.30 | 89 | 1005.4 |
| 20260831171529 | 17 | 215 | 6.4 | 11.3 | 0.00 | 0.30 | 0.30 | 88 | 1005.1 |
| 20260831170032 | 17 | 215 | 3.2 | 11.3 | 0.00 | 0.30 | 0.30 | 88 | 1005.0 |
| 20260831164529 | 17 | 215 | 8.0 | 14.5 | 0.00 | 0.30 | 0.30 | 87 | 1005.0 |
| 20260831163024 | 17 | 225 | 11.3 | 19.3 | 0.00 | 0.30 | 0.30 | 86 | 1004.8 |
| 20260831161523 | 17 | 213 | 11.3 | 24.1 | 0.00 | 0.30 | 0.30 | 86 | 1004.9 |
| 20260831160023 | 17 | 240 | 14.5 | 24.1 | 0.00 | 0.30 | 0.30 | 87 | 1004.9 |
| 20260831154523 | 17 | 226 | 12.9 | 25.7 | 0.00 | 0.30 | 0.30 | 87 | 1004.9 |
| 20260831153022 | 17 | 254 | 12.9 | 20.9 | 0.05 | 0.30 | 0.30 | 89 | 1004.9 |
| 20260831151526 | 17 | 205 | 16.1 | 25.7 | 0.05 | 0.30 | 0.30 | 89 | 1005.0 |
| 20260831150021 | 17 | 217 | 11.3 | 24.1 | 0.05 | 0.30 | 0.30 | 90 | 1005.0 |
| 20260831144520 | 17 | 225 | 11.3 | 17.7 | 0.05 | 0.30 | 0.30 | 89 | 1005.0 |
| 20260831143020 | 17 | 186 | 11.3 | 19.3 | 0.00 | 0.25 | 0.25 | 87 | 1004.9 |
| 20260831141519 | 18 | 224 | 16.1 | 22.5 | 0.00 | 0.25 | 0.25 | 86 | 1005.0 |
| 20260831140025 | 18 | 246 | 12.9 | 22.5 | 0.00 | 0.25 | 0.25 | 84 | 1005.0 |
| 20260831134524 | 18 | 247 | 12.9 | 22.5 | 0.00 | 0.28 | 0.25 | 83 | 1004.7 |
| 20260831133019 | 18 | 238 | 12.9 | 25.7 | 0.00 | 0.28 | 0.25 | 84 | 1004.7 |
| 20260831131515 | 18 | 230 | 11.3 | 25.7 | 0.00 | 0.28 | 0.25 | 89 | 1004.8 |
| 20260831130015 | 17 | 196 | 14.5 | 20.9 | 0.00 | 0.64 | 0.25 | 90 | 1004.7 |
| 20260831124514 | 17 | 185 | 9.7 | 20.9 | 0.00 | 0.64 | 0.25 | 92 | 1004.7 |
| 20260831123019 | 17 | 178 | 12.9 | 19.3 | 0.00 | 0.64 | 0.25 | 92 | 1004.8 |
| 20260831121512 | 16 | 185 | 8.0 | 17.7 | 0.00 | 0.64 | 0.25 | 94 | 1004.8 |
| 20260831120012 | 16 | 167 | 11.3 | 17.7 | 0.15 | 0.64 | 0.25 | 94 | 1004.7 |
| 20260831114511 | 16 | 180 | 9.7 | 17.7 | 0.20 | 0.64 | 0.25 | 94 | 1004.7 |
| 20260831113014 | 15 | 184 | 9.7 | 16.1 | 0.25 | 0.64 | 0.25 | 93 | 1004.6 |
| 20260831111510 | 16 | 171 | 12.9 | 19.3 | 0.25 | 0.64 | 0.25 | 93 | 1004.6 |
| 20260831110009 | 16 | 198 | 14.5 | 22.5 | 0.10 | 0.48 | 0.10 | 93 | 1004.6 |
| 20260831104514 | 17 | 196 | 11.3 | 24.1 | 0.05 | 0.43 | 0.05 | 92 | 1004.7 |
| 20260831103007 | 17 | 198 | 14.5 | 22.5 | 0.00 | 0.38 | 0.00 | 90 | 1004.8 |
| 20260831101507 | 18 | 187 | 12.9 | 24.1 | 0.00 | 0.38 | 0.00 | 88 | 1004.8 |
| 20260831100005 | 18 | 220 | 16.1 | 25.7 | 0.00 | 0.41 | 0.00 | 88 | 1004.9 |
| 20260831094504 | 18 | 170 | 16.1 | 24.1 | 0.00 | 0.41 | 0.00 | 88 | 1004.8 |
| 20260831093001 | 18 | 226 | 19.3 | 30.6 | 0.00 | 0.41 | 0.00 | 90 | 1004.8 |
| 20260831091605 | 17 | 187 | 16.1 | 27.4 | 0.00 | 0.41 | 0.00 | 92 | 1005.0 |
| 20260831090056 | 17 | 147 | 4.8 | 16.1 | 0.00 | 0.41 | 0.00 | 94 | 1005.1 |
| 20260831084554 | 17 | 138 | 6.4 | 17.7 | 0.00 | 0.48 | 0.00 | 94 | 1005.2 |
| 20260831083055 | 16 | 175 | 11.3 | 17.7 | 0.00 | 0.48 | 0.00 | 94 | 1005.4 |
| 20260831081550 | 16 | 158 | 9.7 | 19.3 | 0.00 | 0.48 | 0.00 | 94 | 1005.6 |
| 20260831080048 | 16 | 186 | 11.3 | 19.3 | 0.00 | 0.48 | 0.00 | 94 | 1005.6 |
| 20260831074550 | 16 | 183 | 9.7 | 17.7 | 0.00 | 0.58 | 0.00 | 94 | 1005.5 |
| 20260831073047 | 16 | 182 | 9.7 | 17.7 | 0.00 | 0.58 | 0.00 | 95 | 1005.6 |
| 20260831071546 | 16 | 184 | 9.7 | 16.1 | 0.00 | 0.58 | 0.00 | 95 | 1005.6 |
| 20260831070047 | 16 | 171 | 8.0 | 14.5 | 0.00 | 0.58 | 0.00 | 95 | 1005.9 |
| 20260831064542 | 16 | 179 | 3.2 | 4.8 | 0.00 | 0.66 | 0.00 | 95 | 1006.1 |
| 20260831063040 | 15 | 184 | 4.8 | 8.0 | 0.00 | 0.66 | 0.00 | 96 | 1006.1 |
| 20260831061536 | 15 | 203 | 4.8 | 12.9 | 0.00 | 0.66 | 0.00 | 96 | 1006.1 |
| 20260831060031 | 15 | 190 | 3.2 | 14.5 | 0.00 | 0.66 | 0.00 | 96 | 1006.2 |
| 20260831054530 | 14 | 184 | 9.7 | 11.3 | 0.00 | 0.69 | 0.00 | 96 | 1006.1 |
| 20260831053027 | 14 | 200 | 4.8 | 11.3 | 0.00 | 0.69 | 0.00 | 95 | 1006.3 |
| 20260831051530 | 13 | 194 | 4.8 | 9.7 | 0.00 | 0.69 | 0.00 | 95 | 1006.4 |
| 20260831050019 | 13 | 192 | 4.8 | 9.7 | 0.00 | 0.69 | 0.00 | 95 | 1006.5 |
| 20260831044518 | 13 | 194 | 1.6 | 6.4 | 0.00 | 0.71 | 0.00 | 95 | 1006.6 |
| 20260831043015 | 13 | 198 | 4.8 | 9.7 | 0.00 | 0.71 | 0.00 | 95 | 1006.5 |
| 20260831041514 | 13 | 197 | 4.8 | 8.0 | 0.00 | 0.71 | 0.00 | 95 | 1006.5 |